Location: Dappach
(48.9767°N, 9.6998°E)
Time: 08:07:01
(UTC+00:00)

NOSS 3-4 (C) - Pass Details

Date: 23 May 2024
Orbit: 814 x 1397 km, 63.4° (Epoch: 04 June)

Event Time Altitude Azimuth Distance (km) Brightness Sun altitude
Rises 00:34:05 0° 315° (NW) 3,794 6.9 -18.3°
Reaches altitude 10° 00:36:41 10° 308° (NW) 2,921 6.2 -18.2°
Maximum altitude 00:43:11 42° 241° (WSW) 1,625 4.3 -17.8°
Enters shadow 00:47:18 24° 187° (S) 2,320 4.9 -17.6°
